Location: Bocianicha
(51.5066°N, 19.2563°E)
Time: 14:15:44
(UTC+00:00)

Cosmos 1455 Rocket - Pass Details

Date: 15 June 2025
Orbit: 598 x 624 km, 82.5° (Epoch: 18 July)

Event Time Altitude Azimuth Distance (km) Brightness Sun altitude
Rises 01:14:17 0° 344° (NNW) 2,892 7.1 -8.2°
Reaches altitude 10° 01:16:36 10° 338° (NNW) 1,977 6.1 -8.0°
Maximum altitude 01:20:44 42° 267° (W) 867 3.5 -7.6°
Drops below altitude 10° 01:24:48 10° 196° (SSW) 1,947 5.0 -7.2°
Enters shadow 01:25:26 - 194° (SSW) 2,190 5.3 -7.2°
